DW8722 Weather Reports


Display with metric or nautical units.
time (UTC)temp
F
wind
direction
speed
MPH
gust
MPH
rain 1hr
in
rain 24hr
in
rain mn
in
humidity
%
barometer
mb
20260509011737 73 169 1.0 4.0 0.00 0.42 0.42 78 1008.3
20260509010738 73 188 1.0 5.0 0.00 0.42 0.42 78 1008.2
20260509005740 73 171 1.0 5.0 0.00 0.42 0.42 78 1008.2
20260509004716 74 200 1.0 4.0 0.00 0.42 0.42 77 1008.2
20260509003647 74 194 2.0 11.0 0.00 0.42 0.42 77 1008.2
20260509002706 74 192 5.0 11.0 0.00 0.42 0.42 75 1007.9
20260509001711 75 196 5.0 9.0 0.00 0.42 0.42 74 1007.9
20260508235546 76 177 6.0 13.0 0.00 0.42 0.42 71 1007.9
20260508234512 76 161 7.0 13.0 0.00 0.42 0.42 70 1008.0
20260508233514 77 144 6.0 12.0 0.00 0.42 0.42 69 1007.9
20260508232526 77 182 7.0 11.0 0.00 0.42 0.42 68 1008.0
20260508231522 78 147 6.0 11.0 0.00 0.42 0.42 68 1008.2
20260508225411 78 157 7.0 12.0 0.00 0.42 0.42 68 1008.1
20260508224343 79 182 5.0 12.0 0.00 0.42 0.42 66 1008.1
20260508223309 79 184 6.0 12.0 0.00 0.42 0.42 67 1008.2
20260508222320 79 196 5.0 10.0 0.00 0.42 0.42 67 1008.1
20260508221307 79 162 5.0 13.0 0.00 0.42 0.42 67 1008.0
20260508220307 79 130 6.0 13.0 0.00 0.42 0.42 66 1008.0
20260508213036 79 185 7.0 14.0 0.00 0.42 0.42 66 1008.7
20260508210916 79 214 7.0 13.0 0.00 0.42 0.42 65 1009.0
20260508205916 79 168 6.0 15.0 0.00 0.42 0.42 66 1009.2
20260508204857 78 219 6.0 15.0 0.00 0.42 0.42 67 1009.5
20260508203840 77 158 7.0 12.0 0.00 0.42 0.42 65 1009.5
20260508202841 77 148 7.0 11.0 0.00 0.42 0.42 68 1009.8
20260508195624 75 136 3.0 9.0 0.00 0.42 0.42 70 1010.4
20260508193514 76 164 3.0 9.0 0.00 0.42 0.42 67 1010.4
20260508192443 76 107 4.0 8.0 0.00 0.42 0.42 66 1010.4
20260508191442 76 175 5.0 13.0 0.00 0.42 0.42 68 1010.4
20260508190457 76 192 6.0 13.0 0.00 0.42 0.42 66 1010.6
20260508184322 75 178 4.0 11.0 0.00 0.42 0.42 70 1010.7
20260508183338 75 134 4.0 11.0 0.00 0.42 0.42 72 1011.0
20260508182339 74 193 3.0 9.0 0.00 0.42 0.42 71 1011.2
20260508180242 73 171 2.0 10.0 0.00 0.42 0.42 77 1011.6
20260508175232 72 86 1.0 7.0 0.00 0.42 0.42 80 1012.0
20260508174212 71 186 0.0 3.0 0.00 0.42 0.42 80 1012.4
20260508173232 70 194 0.0 3.0 0.00 0.42 0.42 84 1012.5
20260508172208 69 172 2.0 4.0 0.00 0.42 0.42 84 1012.7
20260508171231 69 132 2.0 7.0 0.00 0.42 0.42 87 1013.1
20260508170215 68 168 2.0 6.0 0.00 0.42 0.42 89 1013.3
20260508165210 67 189 1.0 6.0 0.00 0.42 0.42 91 1013.5
20260508164216 66 134 0.0 1.0 0.00 0.42 0.42 91 1013.6
20260508163234 65 103 0.0 0.0 0.06 0.42 0.42 91 1013.7
20260508162221 64 130 0.0 3.0 0.00 0.39 0.40 90 1014.0
20260508161233 64 165 1.0 3.0 0.00 0.39 0.40 90 1014.1
20260508155113 64 156 3.0 7.0 0.00 0.39 0.40 90 1013.9
20260508154136 64 163 1.0 4.0 0.00 0.39 0.40 90 1014.0
20260508153124 64 124 1.0 3.0 0.06 0.39 0.40 89 1013.9
20260508152133 64 138 3.0 7.0 0.46 0.39 0.38 88 1013.9
20260508151103 65 148 2.0 8.0 0.00 0.36 0.37 90 1014.2
20260508150121 65 119 4.0 11.0 0.00 0.36 0.37 91 1014.0
20260508145047 64 159 4.0 11.0 0.00 0.36 0.37 91 1014.1
20260508142839 62 116 0.0 0.0 0.00 0.36 0.37 91 1014.4
20260508141822 61 127 0.0 0.0 0.00 0.36 0.37 91 1014.5
20260508140818 61 112 0.0 0.0 0.00 0.36 0.37 91 1014.8
20260508135841 61 101 0.0 0.0 0.00 0.36 0.37 91 1015.0
20260508134834 61 103 1.0 2.0 0.00 0.36 0.37 91 1014.6
20260508133803 60 180 0.0 0.0 0.00 0.36 0.37 91 1014.5
20260508132758 60 184 1.0 5.0 0.00 0.36 0.37 91 1014.9
20260508131740 60 115 3.0 9.0 0.00 0.36 0.37 91 1014.3
20260508130710 60 142 0.0 2.0 0.00 0.36 0.37 91 1014.7
20260508125659 60 203 0.0 0.0 0.00 0.36 0.37 91 1015.0
20260508124626 60 221 0.0 0.0 0.00 0.36 0.37 91 1015.2
20260508123609 59 221 0.0 0.0 0.00 0.36 0.37 91 1015.3
20260508122548 59 164 1.0 1.0 0.05 0.36 0.37 92 1015.0
20260508120420 59 178 2.0 0.0 0.74 0.29 0.31 92 1015.3
20260508115439 59 176 1.0 5.0 0.00 0.19 0.19 91 1014.8
20260508114502 59 120 1.0 6.0 0.00 0.19 0.19 91 1014.4
20260508113458 59 105 2.0 6.0 0.00 0.19 0.19 92 1014.3
20260508112520 59 134 3.0 6.0 0.00 0.19 0.19 92 1014.6
20260508110408 59 167 6.0 11.0 0.04 0.18 0.18 92 1013.9
20260508105403 58 131 3.0 7.0 0.12 0.18 0.18 91 1014.6
20260508104410 58 217 2.0 9.0 0.35 0.13 0.15 91 1015.7
20260508102315 56 42 0.0 0.0 0.00 0.00 0.00 92 1013.9
20260508101325 56 43 0.0 0.0 0.00 0.00 0.00 91 1013.6
20260508100342 57 43 0.0 0.0 0.00 0.00 0.00 91 1013.7
20260508095319 57 43 0.0 0.0 0.00 0.00 0.00 91 1014.0
20260508094334 57 48 0.0 0.0 0.00 0.00 0.00 91 1013.9
20260508093318 57 136 0.0 0.0 0.00 0.00 0.00 91 1013.8
20260508092251 58 140 0.0 0.0 0.00 0.00 0.00 91 1014.2
20260508091254 58 181 0.0 0.0 0.00 0.00 0.00 91 1014.5
20260508090222 58 306 0.0 0.0 0.00 0.00 0.00 91 1014.5
20260508085229 58 115 1.0 0.0 0.00 0.00 0.00 91 1013.9
20260508084248 58 132 0.0 4.0 0.00 0.00 0.00 91 1014.5
20260508083222 58 145 0.0 0.0 0.00 0.00 0.00 91 1014.7
20260508082212 58 148 2.0 5.0 0.00 0.00 0.00 91 1014.6
20260508080127 56 101 0.0 0.0 0.00 0.00 0.00 91 1015.0
20260508075119 56 101 0.0 0.0 0.00 0.00 0.00 91 1015.3
20260508074044 56 101 0.0 0.0 0.00 0.00 0.00 91 1014.8
20260508073044 56 101 0.0 0.0 0.00 0.00 0.00 90 1014.8
20260508072021 56 126 0.0 0.0 0.00 0.00 0.00 91 1015.0
20260508071045 57 126 0.0 0.0 0.00 0.00 0.00 91 1015.2
20260508070026 57 126 0.0 0.0 0.00 0.00 0.00 91 1015.5
20260508063846 57 126 0.0 0.0 0.00 0.00 0.00 91 1015.8
20260508062858 57 126 0.0 0.0 0.00 0.00 0.00 90 1015.7
20260508061913 57 126 0.0 0.0 0.00 0.00 0.00 90 1015.7
20260508060901 57 126 0.0 0.0 0.00 0.00 0.00 90 1015.7
20260508055835 56 126 0.0 0.0 0.00 0.00 0.00 90 1015.7
20260508054859 56 126 0.0 0.0 0.00 0.00 0.00 90 1015.7
20260508053841 57 126 0.0 0.0 0.00 0.00 0.00 90 1015.9
20260508052813 56 126 0.0 0.0 0.00 0.00 0.00 89 1016.1
20260508050602 57 126 0.0 0.0 0.00 0.00 0.00 89 1015.9
20260508044421 57 126 0.0 0.0 0.00 0.00 0.00 87 1015.8
20260508043426 57 126 0.0 0.0 0.00 0.00 0.00 87 1015.8
20260508042429 57 136 0.0 0.0 0.00 0.00 0.00 87 1015.8
20260508041409 57 144 0.0 0.0 0.00 0.00 0.00 86 1015.9
20260508040335 58 144 0.0 0.0 0.00 0.00 0.00 85 1015.8
20260508034135 59 144 0.0 0.0 0.00 0.00 0.00 84 1015.7
20260508033152 59 144 0.0 0.0 0.00 0.00 0.00 84 1015.7
20260508032146 59 144 0.0 0.0 0.00 0.00 0.00 82 1015.7
20260508031204 60 144 0.0 0.0 0.00 0.00 0.00 82 1015.6
20260508030150 60 144 0.0 0.0 0.00 0.00 0.00 81 1015.6
20260508025146 61 144 0.0 0.0 0.00 0.00 0.00 80 1015.6
20260508024146 61 144 0.0 0.0 0.00 0.00 0.00 79 1015.4
20260508023113 62 144 0.0 0.0 0.00 0.00 0.00 78 1015.2
20260508022052 62 144 0.0 0.0 0.00 0.00 0.00 78 1015.2
20260508015919 64 144 0.0 0.0 0.00 0.00 0.00 77 1015.3
20260508014906 64 151 0.0 3.0 0.00 0.00 0.00 76 1015.1
20260508013901 64 145 1.0 4.0 0.00 0.00 0.00 75 1015.1
20260508012918 65 148 1.0 5.0 0.00 0.00 0.00 74 1015.0